Home   Weather   St. John's   Past weeks

Flag for Canada Past Weather in St. John's, Newfoundland and Labrador, Canada — Yesterday and Last 2 Weeks

43 °F

Partly sunny.

Feels Like: 36 °F
Forecast: 36 / 46 °F
Wind: 13 mph from South

Location: St. John's

Current Time: Oct 21, 2016 at 3:58:44 PM

Latest Report: Oct 21, 2016 at 3:30 PM

Visibility: 15 mi

Pressure: 30.44 "Hg

Humidity: 66%

Dew Point: 32 °F

Location of St. John'sLocation

Past Weather in St. John's — Graph


St. John's Temperature Yesterday

Maximum temperature yesterday: 54 °F (at 12:30 AM)
Minimum temperature yesterday: 36 °F (at 9:30 PM)
Average temperature yesterday: 44 °F

High & Low Weather Summary for the Past Weeks

High64 °F (Oct 6, 2:30 PM)100% (Oct 10, 6:30 AM)30.51 "Hg (Oct 10, 6:30 AM)
Low32 °F (Oct 21, 2:30 AM)33% (Oct 13, 11:30 AM)29.41 "Hg (Oct 11, 3:30 AM)
Average47 °F83%30.06 "Hg
* Reported Oct 6 2:30 PM — Oct 21 2:30 PM, St. John's, Weather by CustomWeather, © 2016

Note: Actual official high and low records may vary slightly from our data, if they occured in-between our weather recording intervals... More about our weather records


St. John's Weather History for the Previous 24 Hours

Scroll right to see more
Time TempWeatherWind HumidityBarometerVisibility
2:30 PM
Fri, Oct 21
45 °FBroken clouds.9 mph61%30.45 "Hg15 mi
1:30 PM43 °FBroken clouds.7 mph66%30.47 "Hg15 mi
12:30 PM41 °FBroken clouds.7 mph66%30.49 "Hg15 mi
11:30 AM39 °FBroken clouds.6 mph70%30.51 "Hg15 mi
10:30 AM39 °FBroken clouds.5 mph70%30.51 "Hg15 mi
9:30 AM39 °FBroken clouds.3 mph70%30.51 "Hg15 mi
8:30 AM34 °FPartly sunny.2 mph87%30.51 "Hg15 mi
7:30 AM34 °FScattered clouds.3 mph81%30.48 "Hg15 mi
6:30 AM34 °FPassing clouds.3 mph81%30.47 "Hg15 mi
5:30 AM32 °FPassing clouds.6 mph80%30.47 "Hg15 mi
4:30 AM32 °FPassing clouds.6 mph80%30.47 "Hg15 mi
3:30 AM32 °FPassing clouds.5 mph87%30.45 "Hg15 mi
2:30 AM32 °FPassing clouds.7 mph87%30.45 "Hg15 mi
1:30 AM34 °FPassing clouds.7 mph81%30.42 "Hg15 mi
12:30 AM34 °FPassing clouds.7 mph81%30.41 "Hg15 mi
11:30 PM
Thu, Oct 20
36 °FPassing clouds.10 mph75%30.40 "Hg15 mi
10:30 PM36 °FPassing clouds.9 mph81%30.38 "Hg15 mi
9:30 PM36 °FPassing clouds.8 mph81%30.36 "Hg15 mi
8:30 PM37 °FPassing clouds.10 mph75%30.32 "Hg15 mi
7:30 PM37 °FPassing clouds.12 mph81%30.29 "Hg15 mi
6:30 PM39 °FPassing clouds.13 mph75%30.26 "Hg15 mi
5:30 PM41 °FPartly sunny.16 mph70%30.22 "Hg15 mi
4:30 PM41 °FBroken clouds.14 mph81%30.17 "Hg15 mi
3:30 PM43 °FPartly sunny.16 mph76%30.12 "Hg15 mi
Weather by CustomWeather, © 2016

See weather overviewHow to use our weather pages